Weather History for Beach, ND

Change the Weather History Date:

Monday, April 22, 2013

  Actual Average (KGDV) Record (KGDV)
Temperature  
Mean Temperature 24 °F -  
Max Temperature 32 °F 57 °F 78 °F (2009)
Min Temperature 17 °F 33 °F 19 °F (2013)
Degree Days  
Heating Degree Days 40    
Moisture  
Dew Point 15 °F    
Average Humidity 68    
Maximum Humidity 100    
Minimum Humidity 38    
Precipitation  
Precipitation 0.00 in - - ()
Sea Level Pressure  
Sea Level Pressure 30.35 in    
Wind  
Wind Speed 10 mph (NNW)    
Max Wind Speed 16 mph    
Max Gust Speed 22 mph    
Visibility 10 miles    
Events Snow    
Averages and records for this station are not official NWS values.
T = Trace of Precipitation, MM = Missing Value Source: NWS Daily Summary

Daily Weather History Graph

Daily Weather History Graph

Search for Another Location

Airport:

Trip Planner

Search our weather history database for the weather conditions in past years. The results will help you decide how hot, cold, wet, or windy it might be!

Date:

Astronomy

Apr. 22, 2013 Rise Set
Actual Time 5:55 AM MDT 7:54 PM MDT
Civil Twilight 5:22 AM MDT 8:27 PM MDT
Nautical Twilight 4:42 AM MDT 9:07 PM MDT
Astronomical Twilight 3:57 AM MDT 9:52 PM MDT
Moon 4:35 PM MDT (4/22) 4:03 AM MDT (4/22)
Length of Visible Light 15h 04m
Length of Day
13h 59m
Waxing Gibbous, 88% of the Moon is Illuminated
Apr 22
Waxing Gibbous
Apr 25
Full
May 2
Last Quarter
May 9
New
May 17
First Quarter

Hourly Weather History & Observations

Time (MDT) Temp. Windchill Dew Point Humidity Pressure Visibility Wind Dir Wind Speed Gust Speed Precip Events Conditions
12:15 AM 26.6 °F 16.2 °F 23.0 °F 86% 30.25 in 10.0 mi North 11.5 mph - N/A   Overcast
12:35 AM 24.8 °F 14.6 °F 23.0 °F 93% 30.26 in 10.0 mi North 10.4 mph - N/A   Overcast
12:55 AM 24.8 °F 16.9 °F 23.0 °F 93% 30.26 in 10.0 mi North 6.9 mph - N/A   Overcast
1:15 AM 24.8 °F 16.9 °F 23.0 °F 93% 30.26 in 10.0 mi North 6.9 mph - N/A   Overcast
1:35 AM 23.0 °F 15.8 °F 23.0 °F 100% 30.26 in 10.0 mi NNW 5.8 mph - N/A   Mostly Cloudy
1:55 AM 23.0 °F 12.4 °F 21.2 °F 93% 30.26 in 10.0 mi NNW 10.4 mph - N/A   Partly Cloudy
2:15 AM 23.0 °F 13.9 °F 21.2 °F 93% 30.27 in 10.0 mi NNW 8.1 mph - N/A   Partly Cloudy
2:35 AM 23.0 °F 13.1 °F 21.2 °F 93% 30.27 in 10.0 mi NNW 9.2 mph - N/A   Mostly Cloudy
2:55 AM 23.0 °F 13.1 °F 19.4 °F 86% 30.27 in 10.0 mi North 9.2 mph - N/A   Overcast
3:15 AM 21.2 °F 10.1 °F 19.4 °F 93% 30.27 in 10.0 mi North 10.4 mph - N/A   Overcast
3:35 AM 21.2 °F 8.9 °F 19.4 °F 93% 30.27 in 10.0 mi North 12.7 mph - N/A   Mostly Cloudy
3:55 AM 21.2 °F 10.9 °F 17.6 °F 86% 30.28 in 10.0 mi North 9.2 mph - N/A   Mostly Cloudy
4:15 AM 21.2 °F 10.1 °F 17.6 °F 86% 30.29 in 10.0 mi North 10.4 mph - N/A   Overcast
4:35 AM 21.2 °F 10.1 °F 17.6 °F 86% 30.29 in 10.0 mi North 10.4 mph - N/A   Overcast
4:55 AM 21.2 °F 10.9 °F 17.6 °F 86% 30.30 in 10.0 mi North 9.2 mph - N/A   Overcast
5:15 AM 21.2 °F 10.9 °F 17.6 °F 86% 30.30 in 10.0 mi North 9.2 mph - N/A   Overcast
5:35 AM 21.2 °F 10.1 °F 17.6 °F 86% 30.31 in 10.0 mi North 10.4 mph - N/A   Overcast
5:55 AM 19.4 °F 9.5 °F 17.6 °F 93% 30.32 in 10.0 mi North 8.1 mph - N/A   Overcast
6:15 AM 19.4 °F 8.6 °F 17.6 °F 93% 30.33 in 10.0 mi North 9.2 mph - N/A   Overcast
6:35 AM 19.4 °F 8.6 °F 17.6 °F 93% 30.33 in 10.0 mi North 9.2 mph - N/A   Overcast
6:55 AM 21.2 °F 10.1 °F 17.6 °F 86% 30.34 in 10.0 mi North 10.4 mph - N/A   Overcast
7:15 AM 21.2 °F 8.9 °F 17.6 °F 86% 30.36 in 10.0 mi North 12.7 mph - N/A   Overcast
7:35 AM 23.0 °F 12.4 °F 17.6 °F 80% 30.36 in 10.0 mi North 10.4 mph - N/A   Scattered Clouds
7:55 AM 23.0 °F 11.7 °F 17.6 °F 80% 30.37 in 10.0 mi North 11.5 mph - N/A   Mostly Cloudy
8:15 AM 23.0 °F 11.7 °F 15.8 °F 74% 30.37 in 10.0 mi North 11.5 mph - N/A   Mostly Cloudy
8:35 AM 23.0 °F 12.4 °F 15.8 °F 74% 30.38 in 10.0 mi North 10.4 mph 16.1 mph N/A   Overcast
8:55 AM 23.0 °F 12.4 °F 15.8 °F 74% 30.38 in 10.0 mi NNW 10.4 mph - N/A   Mostly Cloudy
9:15 AM 23.0 °F 12.4 °F 15.8 °F 74% 30.38 in 10.0 mi NNW 10.4 mph - N/A   Mostly Cloudy
9:35 AM 23.0 °F 11.1 °F 12.2 °F 63% 30.39 in 10.0 mi NNE 12.7 mph - N/A   Overcast
9:55 AM 24.8 °F 12.9 °F 14.0 °F 64% 30.39 in 10.0 mi North 13.8 mph - N/A   Overcast
10:15 AM 24.8 °F 13.4 °F 15.8 °F 69% 30.40 in 10.0 mi NNW 12.7 mph 17.3 mph N/A   Mostly Cloudy
10:35 AM 26.6 °F 16.2 °F 15.8 °F 64% 30.40 in 10.0 mi North 11.5 mph 18.4 mph N/A   Mostly Cloudy
10:55 AM 26.6 °F 16.2 °F 15.8 °F 64% 30.40 in 10.0 mi NNW 11.5 mph - N/A Snow Light Snow
11:15 AM 26.6 °F 16.8 °F 15.8 °F 64% 30.41 in 10.0 mi NW 10.4 mph - N/A Snow Light Snow
11:35 AM 28.4 °F 18.5 °F 14.0 °F 55% 30.40 in 10.0 mi North 11.5 mph 17.3 mph N/A   Overcast
11:55 AM 28.4 °F 19.1 °F 14.0 °F 55% 30.40 in 10.0 mi NNW 10.4 mph 17.3 mph N/A   Overcast
12:15 PM 28.4 °F 19.1 °F 14.0 °F 55% 30.40 in 10.0 mi NW 10.4 mph 18.4 mph N/A   Overcast
12:35 PM 28.4 °F 19.1 °F 12.2 °F 51% 30.40 in 10.0 mi NW 10.4 mph 19.6 mph N/A   Mostly Cloudy
12:55 PM 28.4 °F 17.0 °F 14.0 °F 55% 30.40 in 10.0 mi NNW 15.0 mph - N/A   Overcast
1:15 PM 28.4 °F 18.5 °F 12.2 °F 51% 30.39 in 10.0 mi North 11.5 mph 17.3 mph N/A   Overcast
1:35 PM 30.2 °F 22.6 °F 12.2 °F 47% 30.39 in 10.0 mi NW 8.1 mph 21.9 mph N/A   Overcast
1:55 PM 30.2 °F 21.3 °F 14.0 °F 51% 30.39 in 10.0 mi North 10.4 mph - N/A   Overcast
2:15 PM 32.0 °F 21.6 °F 12.2 °F 44% 30.39 in 10.0 mi NW 15.0 mph 20.7 mph N/A   Overcast
2:35 PM 30.2 °F 19.8 °F 10.4 °F 44% 30.39 in 10.0 mi North 13.8 mph 20.7 mph N/A   Overcast
2:55 PM 32.0 °F 21.6 °F 10.4 °F 41% 30.38 in 10.0 mi North 15.0 mph 19.6 mph N/A   Overcast
3:15 PM 32.0 °F 21.6 °F 10.4 °F 41% 30.38 in 10.0 mi North 15.0 mph 19.6 mph N/A   Overcast
3:35 PM 32.0 °F 21.2 °F 10.4 °F 41% 30.38 in 10.0 mi North 16.1 mph - N/A   Overcast
3:55 PM 32.0 °F 23.6 °F 10.4 °F 41% 30.37 in 10.0 mi NNW 10.4 mph 17.3 mph N/A   Overcast
4:15 PM 32.0 °F 23.6 °F 10.4 °F 41% 30.37 in 10.0 mi North 10.4 mph 19.6 mph N/A   Overcast
4:35 PM 32.0 °F 23.0 °F 10.4 °F 41% 30.37 in 10.0 mi NNW 11.5 mph - N/A   Overcast
4:55 PM 32.0 °F 21.6 °F 10.4 °F 41% 30.37 in 10.0 mi North 15.0 mph 19.6 mph N/A   Overcast
5:15 PM 32.0 °F 21.6 °F 10.4 °F 41% 30.37 in 10.0 mi North 15.0 mph - N/A   Overcast
5:35 PM 32.0 °F 22.5 °F 10.4 °F 41% 30.36 in 10.0 mi NNW 12.7 mph 17.3 mph N/A   Overcast
5:55 PM 32.0 °F 24.8 °F 8.6 °F 38% 30.37 in 10.0 mi North 8.1 mph - N/A   Overcast
6:15 PM 32.0 °F 26.4 °F 8.6 °F 38% 30.37 in 10.0 mi NW 5.8 mph - N/A   Overcast
6:35 PM 32.0 °F 24.2 °F 8.6 °F 38% 30.36 in 10.0 mi NNW 9.2 mph - N/A   Mostly Cloudy
6:55 PM 32.0 °F 23.0 °F 8.6 °F 38% 30.36 in 10.0 mi North 11.5 mph 17.3 mph N/A   Mostly Cloudy
7:15 PM 32.0 °F 24.2 °F 10.4 °F 41% 30.36 in 10.0 mi North 9.2 mph - N/A   Mostly Cloudy
7:35 PM 28.4 °F 22.2 °F 10.4 °F 47% 30.36 in 10.0 mi North 5.8 mph - N/A   Scattered Clouds
7:55 PM 26.6 °F 20.0 °F 10.4 °F 51% 30.36 in 10.0 mi North 5.8 mph - N/A   Partly Cloudy
8:15 PM 26.6 °F 21.2 °F 10.4 °F 51% 30.36 in 10.0 mi North 4.6 mph - N/A   Mostly Cloudy
8:35 PM 24.8 °F - 12.2 °F 59% 30.37 in 10.0 mi Calm Calm - N/A   Mostly Cloudy
8:55 PM 24.8 °F - 12.2 °F 59% 30.37 in 10.0 mi Calm Calm - N/A   Partly Cloudy
9:15 PM 23.0 °F - 15.8 °F 74% 30.37 in 10.0 mi Calm Calm - N/A   Clear
9:35 PM 23.0 °F - 15.8 °F 74% 30.37 in 10.0 mi Calm Calm - N/A   Clear
9:55 PM 19.4 °F - 17.6 °F 93% 30.37 in 10.0 mi Calm Calm - N/A   Clear
10:15 PM 19.4 °F 12.8 °F 15.8 °F 86% 30.37 in 10.0 mi South 4.6 mph - N/A   Clear
10:35 PM 19.4 °F 12.8 °F 15.8 °F 86% 30.36 in 10.0 mi SSW 4.6 mph - N/A   Clear
10:55 PM 19.4 °F 14.3 °F 15.8 °F 86% 30.36 in 10.0 mi SSW 3.5 mph - N/A   Clear
11:15 PM 17.6 °F 10.7 °F 15.8 °F 93% 30.35 in 10.0 mi SW 4.6 mph - N/A   Clear
11:35 PM 19.4 °F 11.5 °F 14.0 °F 80% 30.34 in 10.0 mi SW 5.8 mph - N/A   Clear
11:55 PM 19.4 °F 11.5 °F 15.8 °F 86% 30.34 in 10.0 mi SSW 5.8 mph - N/A   Clear